This is the latest recevied weather packets stored in our database for station/object KG4AGD. If no packets are shown the sender has not sent any weather packets the latest 10 day(s).
| Time | Temp. | Humidity | Pressure | Rain* | Wind** | Luminosity | Snow |
|---|---|---|---|---|---|---|---|
| 1777909244 | 23.89° C | 51% | 1018.2 hPa | 0 mm | - | - | - |
| 1777908942 | 23.33° C | 48% | 1018.2 hPa | 0 mm | - | - | - |
| 1777908640 | 23.33° C | 52% | 1018.2 hPa | 0 mm | - | - | - |
| 1777908337 | 23.33° C | 56% | 1018.2 hPa | 0 mm | - | - | - |
| 1777908035 | 22.22° C | 55% | 1018.2 hPa | 0 mm | - | - | - |
| 1777907733 | 22.78° C | 54% | 1018.2 hPa | 0 mm | - | - | - |
| 1777907431 | 22.22° C | 54% | 1018.2 hPa | 0 mm | - | - | - |
| 1777907128 | 22.22° C | 57% | 1018.6 hPa | 0 mm | - | - | - |
| 1777906826 | 21.67° C | 59% | 1018.6 hPa | 0 mm | - | - | - |
| 1777906524 | 22.22° C | 58% | 1018.6 hPa | 0 mm | - | - | - |
| 1777906222 | 21.11° C | 58% | 1018.6 hPa | 0 mm | - | - | - |
| 1777905920 | 21.67° C | 57% | 1018.6 hPa | 0 mm | - | - | - |
| 1777905617 | 21.11° C | 61% | 1018.6 hPa | 0 mm | - | - | - |
| 1777905315 | 21.67° C | 60% | 1018.6 hPa | 0 mm | - | - | - |
| 1777905013 | 20.56° C | 62% | 1018.6 hPa | 0 mm | - | - | - |
| 1777904710 | 21.11° C | 61% | 1018.6 hPa | 0 mm | - | - | - |
| 1777904408 | 20.56° C | 62% | 1018.6 hPa | 0 mm | - | - | - |
| 1777904106 | 20.56° C | 63% | 1018.6 hPa | 0 mm | - | - | - |
| 1777903804 | 20° C | 64% | 1018.9 hPa | 0 mm | - | - | - |
| 1777903500 | 20.56° C | 66% | 1018.9 hPa | 0 mm | - | - | - |
| 1777903197 | 20° C | 65% | 1018.9 hPa | 0 mm | - | - | - |
| 1777902895 | 19.44° C | 67% | 1018.6 hPa | 0 mm | - | - | - |
| 1777902592 | 18.33° C | 68% | 1018.6 hPa | 0 mm | - | - | - |
| 1777902290 | 18.89° C | 71% | 1018.6 hPa | 0 mm | - | - | - |
| 1777901988 | 18.33° C | 71% | 1018.6 hPa | 0 mm | - | - | - |
* Rain since midnight (hover to see other rain measurements)
** Current wind speed in m/s (hover to see current wind gust speed)